Starlink 6372

operational
NORAD ID: 57348 Int'l Des: 2023-099 Owner: SPXS Country: US Constellation: starlink
LEOCIRCULAR

Über Starlink 6372

Beschreibung wird geladen...

Live-Position

3D-Globus wird geladen...

Nächste Überflüge

Höhenverlauf

Altitude vs Time

uPlot chart will show altitude changes over time

Zweizeiliger Elementsatz

1 57348U 23099W 25303.86909467 -.00000339 00000-0 -10005-4 0 9999
2 57348 43.0052 233.9135 0001358 266.1546 93.9141 15.02537350126597
Epoch: 30. Okt. 2025 • Age: 21 hours

Aktueller Status

Höhe 558.3 km
Geschwindigkeit 7.58 km/s
Subsatellitenpunkt 9.59°N, 65.62°W
Startdatum 16. Juli 2023
Alter 2.2 years
Typ internet

Technische Details

Klassifizierung Payload
Masse 305.00 kg
Trockenmasse 290.00 kg
Gesamtmasse 305.00 kg
Länge 0.20 m
Durchmesser 2.80 m
Spannweite 9.00 m
Form Box + pan
Hersteller SPXS
Bus-Typ Starlink
Phasenstatus In Orbit
Besitzer/Staat SPXS/US

Große Konstellationen

Loading constellations...